Tracking 21074 objects as of 11-Aug-2020
HD Live streaming from Space Station
objects crossing your sky now
Track the most recent launched group of Starlink satellites

STARLINK-62

Track STARLINK-62 now!
10-day predictions
STARLINK-62 is classified as:


NORAD ID: 44274
Int'l Code: 2019-029AR
Perigee: 260.8 km
Apogee: 263.2 km
Inclination: 53.0 °
Period: 89.6 minutes
Semi major axis: 6632 km
RCS: Unknown
Launch date: May 24, 2019
Source: United States (US)
Launch site: AIR FORCE EASTERN TEST RANGE (AFETR)
aabbcc
Your satellite tracking list
Your tracking list is empty




NASA's NSSDC Master Catalog

Two Line Element Set (TLE):
1 44274U 19029F   20224.38471527  .01778549  22945-2  22942-2 0  9995
2 44274  53.0032 255.2522 0001818  30.3631  93.7943 16.07097748 68304
Source of the keplerian elements: AFSPC